Meteo pe oră la Czyzowice

Astăzi, 17 Aprilie, Sâmbătă

Timp Temperatura Precipitaţii Vânt Presiune Umiditate
00:00 +2°C° 0.4 mm 2 m/s 740 mmHg 99%
01:00 +2°C° 0.4 mm 2 m/s 740 mmHg 99%
02:00 +2°C° 0.4 mm 2 m/s 740 mmHg 99%
03:00 +2°C° 0.4 mm 2 m/s 740 mmHg 99%
04:00 +2°C° 0.4 mm 2 m/s 739 mmHg 98%
05:00 +2°C° 0.3 mm 2 m/s 740 mmHg 98%
06:00 +2°C° 0.3 mm 2 m/s 740 mmHg 98%
07:00 +2°C° 0.3 mm 2 m/s 740 mmHg 98%
08:00 +2°C° 0.2 mm 2 m/s 740 mmHg 99%
09:00 +3°C° 0.2 mm 1 m/s 740 mmHg 99%
10:00 +3°C° 0.2 mm 1 m/s 740 mmHg 99%
11:00 +4°C° 0.1 mm 1 m/s 740 mmHg 99%
12:00 +4°C° 0.1 mm 1 m/s 740 mmHg 99%
13:00 +4°C° 0.1 mm 1 m/s 740 mmHg 98%
14:00 +4°C° 0 mm 1 m/s 740 mmHg 98%
15:00 +4°C° 0 mm 1 m/s 740 mmHg 98%
16:00 +4°C° 0 mm 1 m/s 740 mmHg 98%
17:00 +3°C° 0 mm 0 m/s 740 mmHg 98%
18:00 +3°C° 0 mm 0 m/s 740 mmHg 99%
19:00 +3°C° 0 mm 0 m/s 740 mmHg 99%
20:00 +3°C° 0 mm 0 m/s 740 mmHg 99%
21:00 +3°C° 0 mm 0 m/s 740 mmHg 99%
22:00 +3°C° 0 mm 0 m/s 740 mmHg 99%
23:00 +3°C° 0 mm 0 m/s 740 mmHg 99%

Mâine, 18 Aprilie, Duminică

Timp Temperatura Precipitaţii Vânt Presiune Umiditate
00:00 +3°C° 0 mm 0 m/s 740 mmHg 99%
01:00 +3°C° 0 mm 0 m/s 740 mmHg 99%
02:00 +3°C° 0 mm 0 m/s 740 mmHg 99%
03:00 +3°C° 0 mm 0 m/s 739 mmHg 99%
04:00 +4°C° 0 mm 1 m/s 739 mmHg 99%
05:00 +4°C° 0 mm 1 m/s 739 mmHg 98%
06:00 +4°C° 0 mm 1 m/s 739 mmHg 97%
07:00 +5°C° 0 mm 1 m/s 739 mmHg 97%
08:00 +4°C° 0 mm 2 m/s 739 mmHg 93%
09:00 +5°C° 0 mm 2 m/s 739 mmHg 89%
10:00 +6°C° 0 mm 2 m/s 739 mmHg 85%
11:00 +5°C° 0 mm 3 m/s 739 mmHg 81%
12:00 +7°C° 0 mm 3 m/s 739 mmHg 77%
13:00 +8°C° 0 mm 3 m/s 739 mmHg 74%
14:00 +8°C° 0 mm 3 m/s 739 mmHg 74%
15:00 +8°C° 0 mm 3 m/s 739 mmHg 75%
16:00 +8°C° 0 mm 3 m/s 739 mmHg 75%
17:00 +7°C° 0 mm 2 m/s 739 mmHg 79%
18:00 +7°C° 0 mm 2 m/s 739 mmHg 82%
19:00 +7°C° 0 mm 1 m/s 739 mmHg 85%
20:00 +7°C° 0 mm 1 m/s 739 mmHg 86%
21:00 +6°C° 0 mm 1 m/s 739 mmHg 88%
22:00 +5°C° 0 mm 2 m/s 739 mmHg 89%
23:00 +5°C° 0 mm 2 m/s 739 mmHg 90%

Poimâine, 19 Aprilie, Luni

Timp Temperatura Precipitaţii Vânt Presiune Umiditate
00:00 +5°C° 0 mm 2 m/s 738 mmHg 91%
01:00 +4°C° 0 mm 2 m/s 738 mmHg 92%
02:00 +5°C° 0 mm 1 m/s 738 mmHg 92%
03:00 +5°C° 0 mm 1 m/s 738 mmHg 93%
04:00 +5°C° 0 mm 1 m/s 738 mmHg 93%
05:00 +6°C° 0 mm 1 m/s 738 mmHg 91%
06:00 +6°C° 0 mm 2 m/s 738 mmHg 88%
07:00 +6°C° 0 mm 2 m/s 738 mmHg 86%
08:00 +8°C° 0 mm 2 m/s 737 mmHg 82%
09:00 +9°C° 0 mm 3 m/s 737 mmHg 78%
10:00 +10°C° 0 mm 3 m/s 737 mmHg 75%
11:00 +10°C° 0.1 mm 3 m/s 737 mmHg 74%
12:00 +10°C° 0.1 mm 3 m/s 737 mmHg 73%
13:00 +11°C° 0.1 mm 3 m/s 736 mmHg 72%
14:00 +11°C° 0.1 mm 3 m/s 736 mmHg 70%
15:00 +11°C° 0.1 mm 3 m/s 736 mmHg 69%
16:00 +12°C° 0.1 mm 3 m/s 736 mmHg 67%
17:00 +10°C° 0.3 mm 3 m/s 736 mmHg 73%
18:00 +9°C° 0.3 mm 3 m/s 736 mmHg 79%
19:00 +8°C° 0.3 mm 3 m/s 736 mmHg 85%
20:00 +8°C° 0 mm 2 m/s 736 mmHg 87%
21:00 +7°C° 0 mm 2 m/s 736 mmHg 88%
22:00 +8°C° 0 mm 1 m/s 736 mmHg 89%
23:00 +7°C° 0 mm 2 m/s 736 mmHg 90%

20 Aprilie, Marţi

Timp Temperatura Precipitaţii Vânt Presiune Umiditate
00:00 +6°C° 0 mm 2 m/s 735 mmHg 92%
01:00 +6°C° 0 mm 2 m/s 735 mmHg 93%
02:00 +5°C° 0 mm 2 m/s 735 mmHg 93%
03:00 +6°C° 0 mm 1 m/s 735 mmHg 93%
04:00 +6°C° 0 mm 1 m/s 735 mmHg 92%
05:00 +6°C° 0 mm 1 m/s 735 mmHg 91%
06:00 +7°C° 0 mm 1 m/s 735 mmHg 90%
07:00 +7°C° 0 mm 2 m/s 735 mmHg 89%
08:00 +8°C° 0.1 mm 2 m/s 735 mmHg 84%
09:00 +9°C° 0.1 mm 2 m/s 735 mmHg 79%
10:00 +10°C° 0.1 mm 2 m/s 735 mmHg 74%
11:00 +10°C° 0.3 mm 2 m/s 735 mmHg 71%
12:00 +12°C° 0.3 mm 2 m/s 735 mmHg 69%
13:00 +11°C° 0.3 mm 3 m/s 734 mmHg 66%
14:00 +12°C° 0.1 mm 2 m/s 734 mmHg 66%
15:00 +12°C° 0.1 mm 2 m/s 734 mmHg 65%
16:00 +12°C° 0.1 mm 2 m/s 734 mmHg 65%
17:00 +10°C° 0.1 mm 2 m/s 734 mmHg 71%
18:00 +9°C° 0.1 mm 2 m/s 734 mmHg 76%
19:00 +7°C° 0.1 mm 2 m/s 734 mmHg 82%
20:00 +7°C° 0 mm 2 m/s 734 mmHg 85%
21:00 +7°C° 0 mm 1 m/s 734 mmHg 88%
22:00 +6°C° 0 mm 1 m/s 734 mmHg 90%
23:00 +6°C° 0 mm 1 m/s 734 mmHg 91%

21 Aprilie, Miercuri

Timp Temperatura Precipitaţii Vânt Presiune Umiditate
00:00 +6°C° 0 mm 1 m/s 734 mmHg 91%
01:00 +6°C° 0 mm 1 m/s 734 mmHg 92%
02:00 +6°C° 0 mm 1 m/s 734 mmHg 91%
03:00 +6°C° 0 mm 1 m/s 734 mmHg 90%
04:00 +6°C° 0 mm 1 m/s 733 mmHg 89%
05:00 +7°C° 0 mm 1 m/s 734 mmHg 86%
06:00 +8°C° 0 mm 1 m/s 734 mmHg 84%
07:00 +8°C° 0 mm 1 m/s 734 mmHg 81%
08:00 +9°C° 0 mm 1 m/s 734 mmHg 75%
09:00 +10°C° 0 mm 1 m/s 734 mmHg 68%
10:00 +12°C° 0 mm 1 m/s 734 mmHg 62%
11:00 +12°C° 0.1 mm 1 m/s 734 mmHg 59%
12:00 +13°C° 0.1 mm 1 m/s 734 mmHg 55%
13:00 +14°C° 0.1 mm 1 m/s 734 mmHg 51%
14:00 +15°C° 0.1 mm 1 m/s 733 mmHg 51%
15:00 +15°C° 0.1 mm 2 m/s 733 mmHg 51%
16:00 +15°C° 0.1 mm 2 m/s 733 mmHg 51%
17:00 +13°C° 0.2 mm 2 m/s 733 mmHg 58%
18:00 +12°C° 0.2 mm 2 m/s 733 mmHg 65%
19:00 +9°C° 0.2 mm 2 m/s 733 mmHg 73%
20:00 +9°C° 0 mm 2 m/s 734 mmHg 76%
21:00 +8°C° 0 mm 2 m/s 734 mmHg 79%
22:00 +8°C° 0 mm 2 m/s 734 mmHg 82%
23:00 +7°C° 0 mm 2 m/s 734 mmHg 82%

22 Aprilie, Joi

Timp Temperatura Precipitaţii Vânt Presiune Umiditate
00:00 +7°C° 0 mm 2 m/s 734 mmHg 83%
01:00 +7°C° 0 mm 2 m/s 734 mmHg 84%
02:00 +7°C° 0 mm 2 m/s 734 mmHg 84%
03:00 +6°C° 0 mm 2 m/s 734 mmHg 85%
04:00 +6°C° 0 mm 2 m/s 734 mmHg 85%
05:00 +7°C° 0 mm 2 m/s 734 mmHg 81%
06:00 +9°C° 0 mm 2 m/s 734 mmHg 77%
07:00 +10°C° 0 mm 2 m/s 734 mmHg 74%
08:00 +12°C° 0.1 mm 3 m/s 735 mmHg 68%
09:00 +13°C° 0.1 mm 4 m/s 735 mmHg 62%
10:00 +15°C° 0.1 mm 5 m/s 735 mmHg 56%
11:00 +15°C° 0.3 mm 5 m/s 735 mmHg 59%
12:00 +15°C° 0.3 mm 5 m/s 735 mmHg 61%
13:00 +14°C° 0.3 mm 5 m/s 735 mmHg 63%
14:00 +14°C° 0.2 mm 4 m/s 735 mmHg 67%
15:00 +13°C° 0.2 mm 4 m/s 735 mmHg 71%
16:00 +13°C° 0.2 mm 4 m/s 735 mmHg 74%
17:00 +12°C° 0.2 mm 3 m/s 735 mmHg 78%
18:00 +11°C° 0.2 mm 3 m/s 735 mmHg 82%
19:00 +10°C° 0.2 mm 2 m/s 736 mmHg 86%
20:00 +9°C° 0.3 mm 2 m/s 736 mmHg 88%
21:00 +9°C° 0.3 mm 3 m/s 736 mmHg 90%
22:00 +8°C° 0.3 mm 3 m/s 736 mmHg 92%
23:00 +6°C° 0.5 mm 4 m/s 737 mmHg 92%
Arată mai mult

Formular de consimțământ

Meteoprog și furnizorii noștri de servicii pot stoca și accesa date personale, precum cookies, identificatori de dispozitiv sau alte tehnologii similare pe dispozitivul dumneavoastră și procesa astfel de date pentru a personaliza conținutul și reclamele, dar și pentru a oferi caracteristici de social media și pentru a analiza traficul.

  • Stocarea și/sau accesarea informațiilor pe dispozitivul dumneavoastră

    Cookies, identificatori de dispozitiv sau alte informații pot fi stocate sau accesate pe dispozitiv în scopurile indicate mai sus.

  • Reclame și conținut personalizat, evaluarea reclamelor și a conținutului, informații despre audiențe și dezvoltarea produselor

    Reclamele și conținutul pot fi personalizate pe baza unui profil. Pot fi adăugate date suplimentare pentru a personaliza mai bine reclamele și conținutul. Performanța reclamelor și conținutului poate fi măsurată. Pot fi obținute informații despre utilizatorii care au văzut reclamele și conținutul. Aceste date pot fi utilizate pentru a dezvolta sau îmbunătăți experiența utilizatorilor, sistemele și software-ul.

Dând clic pe ‘Sunt de acord’, permiteți utilizarea cookie-urilor menționate, a identificatorilor de dispozitiv, balizelor web sau altor tehnologii similare. Setările pot fi modificate din browser-ul dispozitivului dumneavoastră.

În anumite scopuri, interesele legitime pot prima asupra consimțământului. Puteți citi mai multe informații în acest sens în Politica privind Confidențialitatea Datelor și Cookie.